This demonstration page uses our WeatherBlox Daily Observations layout. Learn more.

Left ArrowRight Arrow

Hourly Observations for January 16, 2016

Temp ( °F °C ) Dew Point ( °F °C ) Humidity (%) Winds ( mph kmh ) Pressure ( in mb ) Visibility ( mi km ) Precip ( " mm )
12:59 am 00:59 Cloudy with Mist and Fog 46 7.8 43 6.1 89 89 WNW 17 28 29.37 995 6 10 0.00 0.00
1:18 am 01:18 Cloudy with Mist and Fog 46 7.8 43 6.1 89 89 WNW 17 28 29.38 995 6 10 0.00 0.00
1:59 am 01:59 Cloudy with Mist and Fog 48 8.9 44 6.7 86 86 NNW 15 24 29.41 996 6 10 0.00 0.00
2:59 am 02:59 Cloudy with Mist and Fog 48 8.9 45 7.2 89 89 W 15 24 29.48 998 6 10 0.00 0.00
3:24 am 03:24 Cloudy 48 8.9 45 7.2 89 89 W 15 24 29.50 999 7 11 0.00 0.00
3:59 am 03:59 Cloudy 48 8.9 44 6.7 86 86 W 15 24 29.51 999 10 16 0.00 0.00
4:59 am 04:59 Cloudy 48 8.9 44 6.7 86 86 W 15 24 29.55 1001 10 16 0.00 0.00
5:59 am 05:59 Cloudy 48 8.9 44 6.7 86 86 WSW 10 17 29.58 1002 10 16 0.00 0.00
6:11 am 06:11 Cloudy 48 8.9 44 6.7 86 86 WSW 13 20 29.59 1002 10 16 0.00 0.00
6:22 am 06:22 Cloudy 48 8.9 44 6.7 86 86 WSW 10 17 29.59 1002 10 16 0.00 0.00
6:59 am 06:59 Cloudy 48 8.9 44 6.7 86 86 W 12 19 29.62 1003 10 16 0.00 0.00
7:48 am 07:48 Cloudy 48 8.9 44 6.7 86 86 WSW 9 15 29.65 1004 10 16 0.00 0.00
7:59 am 07:59 Cloudy 48 8.9 44 6.7 86 86 WSW 13 20 29.65 1004 10 16 0.00 0.00
8:59 am 08:59 Mostly Cloudy 50 10 45 7.2 83 83 WSW 15 24 29.67 1005 10 16 0.00 0.00
9:53 am 09:53 Partly Cloudy 52 11 45 7 77 77 WSW 12 19 29.71 1006 10 16 0.00 0.00
9:59 am 09:59 Partly Cloudy 52 11.1 45 7.2 77 77 WSW 12 19 29.70 1006 10 16 0.00 0.00
10:59 am 10:59 Mostly Sunny 55 12.8 45 7.2 69 69 W 12 19 29.70 1006 10 16 0.00 0.00
11:59 am 11:59 Mostly Sunny 57 13.9 44 6.7 62 62 WSW 13 20 29.68 1005 10 16 0.00 0.00
12:59 pm 12:59 Partly Cloudy 59 15 40 4.4 49 49 W 14 22 29.66 1005 10 16 0.00 0.00
1:59 pm 13:59 Mostly Cloudy 60 15.6 40 4.4 47 47 W 10 17 29.66 1004 10 16 0.00 0.00
2:59 pm 14:59 Mostly Cloudy 60 15.6 39 3.9 46 46 W 13 20 29.68 1005 10 16 0.00 0.00
3:59 pm 15:59 Mostly Cloudy 57 13.9 40 4.4 53 53 W 9 15 29.70 1006 10 16 0.00 0.00
4:59 pm 16:59 Mostly Cloudy 56 13.3 40 4.4 55 55 W 5 7 29.73 1007 10 16 0.00 0.00
5:59 pm 17:59 Partly Cloudy 50 10 41 5 71 71 SW 3 6 29.76 1008 10 16 0.00 0.00
6:59 pm 18:59 Mostly Cloudy 49 9.4 43 6.1 80 80 SW 3 6 29.79 1009 10 16 0.00 0.00
7:59 pm 19:59 Mostly Cloudy 52 11.1 41 5 66 66 Calm 29.80 1009 10 16 0.00 0.00
8:59 pm 20:59 Partly Cloudy 51 10.6 40 4.4 66 66 W 8 13 29.82 1010 10 16 0.00 0.00
9:57 pm 21:57 Mostly Clear 48 9 39 4 71 71 NNE 10 17 29.83 1010 10 16 0.00 0.00
9:59 pm 21:59 Mostly Clear 48 8.9 39 3.9 71 71 NNE 12 19 29.84 1011 10 16 0.00 0.00
10:59 pm 22:59 Clear 47 8.3 38 3.3 71 71 NNE 13 20 29.85 1011 10 16 0.00 0.00
11:59 pm 23:59 Mostly Clear 46 7.8 35 1.7 66 66 NNE 15 24 29.85 1011 10 16 0.00 0.00

Powered by AerisWeather